Weather History for KRDU - July, 2014

Change the Weather History Date:

Saturday, July 5, 2014

  Actual Average Record
Temperature  
Mean Temperature 72 °F 80 °F  
Max Temperature 83 °F 90 °F 102 °F (1999)
Min Temperature 61 °F 70 °F 54 °F (1996)
Degree Days  
Heating Degree Days 0 0  
Month to date heating degree days 0 0  
Since 1 June heating degree days 0 4  
Since 1 July heating degree days 0 0  
Cooling Degree Days 7 15  
Month to date cooling degree days 80 75  
Year to date cooling degree days 670 631  
Since 1 June cooling degree days 457 422  
Growing Degree Days 22 (Base 50)    
Moisture  
Dew Point 51 °F    
Average Humidity 53    
Maximum Humidity 78    
Minimum Humidity 28    
Precipitation  
Precipitation 0.00 in 0.13 in 3.26 in (1941)
Month to date precipitation T 0.66  
Year to date precipitation 22.58 21.21  
Sea Level Pressure  
Sea Level Pressure 30.23 in    
Wind  
Wind Speed 5 mph (ENE)    
Max Wind Speed 15 mph    
Max Gust Speed 18 mph    
Visibility 10 miles    
Events      
T = Trace of Precipitation, MM = Missing Value Source: NWS Daily Summary

Daily Weather History Graph

Daily Weather History Graph

Search for Another Location

Airport or City:

Trip Planner

Search our weather history database for the weather conditions in past years. The results will help you decide how hot, cold, wet, or windy it might be!

Date:

Astronomy

Jul. 05, 2014 Rise Set
Actual Time 6:04 AM EDT 8:35 PM EDT
Civil Twilight 5:34 AM EDT 9:04 PM EDT
Nautical Twilight 4:57 AM EDT 9:41 PM EDT
Astronomical Twilight 4:16 AM EDT 10:22 PM EDT
Moon 1:41 PM EDT (7/5) 12:41 AM EDT (7/5)
Length of Visible Light 15h 30m
Length of Day
14h 30m
First Quarter, 52% of the Moon is Illuminated
Jul 5
First Quarter
Jul 12
Full
Jul 18
Last Quarter
Jul 26
New
Aug 3
First Quarter

Hourly Weather History & Observations

Time (EDT) Temp. Dew Point Humidity Pressure Visibility Wind Dir Wind Speed Gust Speed Precip Events Conditions
12:51 AM 71.1 °F 55.9 °F 59% 30.18 in 10.0 mi NNE 8.1 mph - N/A   Scattered Clouds
1:51 AM 69.1 °F 55.9 °F 63% 30.19 in 10.0 mi NNE 4.6 mph - N/A   Scattered Clouds
2:51 AM 66.9 °F 55.0 °F 66% 30.19 in 10.0 mi NNE 5.8 mph - N/A   Scattered Clouds
3:51 AM 63.0 °F 54.0 °F 72% 30.21 in 10.0 mi NNE 4.6 mph - N/A   Scattered Clouds
4:51 AM 62.1 °F 53.1 °F 72% 30.22 in 10.0 mi NNE 4.6 mph - N/A   Partly Cloudy
5:51 AM 61.0 °F 53.1 °F 75% 30.24 in 10.0 mi Calm Calm - N/A   Partly Cloudy
6:51 AM 63.0 °F 51.1 °F 65% 30.25 in 10.0 mi NE 3.5 mph - N/A   Partly Cloudy
7:51 AM 66.9 °F 50.0 °F 54% 30.27 in 10.0 mi NE 6.9 mph - N/A   Partly Cloudy
8:51 AM 70.0 °F 48.9 °F 47% 30.28 in 10.0 mi ENE 11.5 mph - N/A   Partly Cloudy
9:51 AM 73.9 °F 48.9 °F 41% 30.29 in 10.0 mi ENE 10.4 mph 18.4 mph N/A   Partly Cloudy
10:51 AM 75.0 °F 50.0 °F 41% 30.29 in 10.0 mi East 6.9 mph - N/A   Partly Cloudy
11:51 AM 77.0 °F 46.9 °F 34% 30.28 in 10.0 mi NNE 10.4 mph 16.1 mph N/A   Partly Cloudy
12:51 PM 78.1 °F 48.0 °F 35% 30.27 in 10.0 mi East 3.5 mph - N/A   Partly Cloudy
1:51 PM 80.6 °F 48.2 °F 32% 30.26 in 10.0 mi Variable 5.8 mph - N/A   Partly Cloudy
2:51 PM 81.0 °F 48.9 °F 33% 30.24 in 10.0 mi Variable 4.6 mph - N/A   Partly Cloudy
3:51 PM 82.0 °F 48.0 °F 30% 30.23 in 10.0 mi ENE 5.8 mph - N/A   Partly Cloudy
4:51 PM 82.0 °F 46.9 °F 29% 30.22 in 10.0 mi Variable 5.8 mph - N/A   Partly Cloudy
5:51 PM 82.0 °F 46.0 °F 28% 30.22 in 10.0 mi Variable 3.5 mph - N/A   Partly Cloudy
6:51 PM 81.0 °F 48.0 °F 31% 30.20 in 10.0 mi ENE 3.5 mph - N/A   Partly Cloudy
7:51 PM 77.0 °F 53.1 °F 43% 30.21 in 10.0 mi ENE 3.5 mph - N/A   Scattered Clouds
8:51 PM 73.0 °F 53.1 °F 49% 30.21 in 10.0 mi SE 5.8 mph - N/A   Scattered Clouds
9:51 PM 71.1 °F 53.1 °F 53% 30.21 in 10.0 mi ESE 3.5 mph - N/A   Scattered Clouds
10:51 PM 70.0 °F 53.1 °F 55% 30.20 in 10.0 mi SE 3.5 mph - N/A   Partly Cloudy
11:51 PM 64.9 °F 54.0 °F 68% 30.20 in 10.0 mi Calm Calm - N/A   Scattered Clouds